Location: Madrid
(40.4000°N, 3.6830°W)
Time: 08:43:51
(UTC+02:00)

ISS - Pass Details

Date: 21 July 2017
Orbit: 400 x 408 km, 51.6° (Epoch: 21 July)

Event Time Altitude Azimuth Distance (km) Brightness Sun altitude
Exits shadow 03:34:33 - 312° (NW) 1,948 -0.1 -26.8°
Reaches altitude 10° 03:36:40 10° 339° (NNW) 1,455 -0.4 -26.7°
Maximum altitude 03:37:52 12° 0° (N) 1,366 -0.3 -26.6°
Drops below altitude 10° 03:39:04 10° 22° (NNE) 1,456 0.0 -26.5°
Sets 03:42:20 0° 58° (ENE) 2,317 0.8 -26.3°
